Point Hope, AK

1:12 AM AKDT on May 30, 2017 (GMT -0800)
Point Hope

Weather History for PAPO - October, 2012

Change the Weather History Date:

Saturday, October 13, 2012

  Actual Average Record
Temperature  
Mean Temperature 30 °F -  
Max Temperature 33 °F 28 °F 39 °F (2016)
Min Temperature 26 °F 20 °F 6 °F (2008)
Degree Days  
Heating Degree Days 36    
Moisture  
Dew Point 24 °F    
Average Humidity 78    
Maximum Humidity 93    
Minimum Humidity 64    
Precipitation  
Precipitation 0.00 in - - ()
Sea Level Pressure  
Sea Level Pressure 29.78 in    
Wind  
Wind Speed 18 mph (NW)    
Max Wind Speed 22 mph    
Max Gust Speed 25 mph    
Visibility 9 miles    
Events      
Averages and records for this station are not official NWS values.
T = Trace of Precipitation, MM = Missing Value Source: NWS Daily Summary

Daily Weather History Graph

Daily Weather History Graph

Search for Another Location

Airport or City:

Trip Planner

Search our weather history database for the weather conditions in past years. The results will help you decide how hot, cold, wet, or windy it might be!

Date:

Astronomy

Oct. 13, 2012 Rise Set
Actual Time 10:07 AM AKDT 7:36 PM AKDT
Civil Twilight 9:09 AM AKDT 8:34 PM AKDT
Nautical Twilight 8:04 AM AKDT 9:39 PM AKDT
Astronomical Twilight 6:56 AM AKDT 10:47 PM AKDT
Moon 7:37 AM AKDT (10/13) 6:47 PM AKDT (10/13)
Length of Visible Light 11h 24m
Length of Day
9h 29m
Waning Crescent, 4% of the Moon is Illuminated
Oct 13
Waning Crescent
Oct 15
New
Oct 21
First Quarter
Oct 29
Full
Nov 6
Last Quarter

Hourly Weather History & Observations

Time (AKDT) Temp. Windchill Dew Point Humidity Pressure Visibility Wind Dir Wind Speed Gust Speed Precip Events Conditions
12:16 AM 33.8 °F 23.2 °F 28.4 °F 81% 29.92 in 10.0 mi NNW 17.3 mph - N/A   Overcast
12:36 AM 33.8 °F 23.2 °F 28.4 °F 81% 29.91 in 10.0 mi NNW 17.3 mph - N/A   Overcast
12:56 AM 33.8 °F 23.5 °F 28.4 °F 81% 29.91 in 10.0 mi NNW 16.1 mph - N/A   Overcast
1:16 AM 33.8 °F 22.5 °F 28.4 °F 81% 29.91 in 10.0 mi NNW 19.6 mph - N/A   Overcast
1:36 AM 33.8 °F 22.8 °F 28.4 °F 81% 29.90 in 10.0 mi NNW 18.4 mph - N/A   Overcast
2:16 AM 33.8 °F 22.5 °F 28.4 °F 81% 29.89 in 10.0 mi NNW 19.6 mph - N/A   Overcast
2:36 AM 33.8 °F 22.8 °F 28.4 °F 81% 29.89 in 10.0 mi NNW 18.4 mph - N/A   Overcast
2:56 AM 33.8 °F 22.5 °F 28.4 °F 81% 29.89 in 10.0 mi NNW 19.6 mph - N/A   Overcast
3:16 AM 33.8 °F 22.8 °F 28.4 °F 81% 29.88 in 10.0 mi NNW 18.4 mph - N/A   Overcast
3:36 AM 33.8 °F 22.8 °F 28.4 °F 81% 29.88 in 10.0 mi NNW 18.4 mph - N/A   Overcast
3:56 AM 33.8 °F 22.8 °F 26.6 °F 75% 29.87 in 10.0 mi NNW 18.4 mph - N/A   Overcast
4:16 AM 33.8 °F 22.5 °F 26.6 °F 75% 29.87 in 10.0 mi NNW 19.6 mph - N/A   Overcast
4:56 AM 32.0 °F 19.5 °F 28.4 °F 87% 29.86 in 7.0 mi NNW 21.9 mph - N/A   Overcast
5:16 AM 32.0 °F 19.8 °F 28.4 °F 87% 29.85 in 8.0 mi NNW 20.7 mph - N/A   Overcast
5:36 AM 32.0 °F 19.8 °F 28.4 °F 87% 29.85 in 8.0 mi NNW 20.7 mph - N/A   Overcast
5:56 AM 32.0 °F 20.1 °F 24.8 °F 75% 29.84 in 10.0 mi NNW 19.6 mph - N/A   Mostly Cloudy
6:56 AM 32.0 °F 20.1 °F 26.6 °F 80% 29.84 in 9.0 mi NNW 19.6 mph - N/A   Overcast
7:16 AM 30.2 °F 18.1 °F 26.6 °F 86% 29.83 in 10.0 mi NNW 18.4 mph - N/A   Overcast
7:56 AM 30.2 °F 18.5 °F 26.6 °F 86% 29.83 in 10.0 mi NNW 17.3 mph - N/A   Mostly Cloudy
8:16 AM 30.2 °F 18.9 °F 24.8 °F 80% 29.83 in 10.0 mi NNW 16.1 mph - N/A   Overcast
8:36 AM 30.2 °F 18.9 °F 26.6 °F 86% 29.83 in 10.0 mi NNW 16.1 mph - N/A   Mostly Cloudy
8:56 AM 30.2 °F 18.9 °F 26.6 °F 86% 29.82 in 2.5 mi North 16.1 mph - N/A   Overcast
9:16 AM 30.2 °F 18.5 °F 26.6 °F 86% 29.82 in 3.0 mi NNW 17.3 mph - N/A   Overcast
9:36 AM 30.2 °F 18.1 °F 24.8 °F 80% 29.81 in 8.0 mi NNW 18.4 mph - N/A   Overcast
9:56 AM 30.2 °F 17.8 °F 24.8 °F 80% 29.81 in 10.0 mi NW 19.6 mph - N/A   Overcast
10:16 AM 30.2 °F 18.5 °F 24.8 °F 80% 29.81 in 10.0 mi NNW 17.3 mph - N/A   Overcast
10:36 AM 30.2 °F 18.5 °F 24.8 °F 80% 29.80 in 10.0 mi NW 17.3 mph - N/A   Overcast
10:56 AM 30.2 °F 18.5 °F 24.8 °F 80% 29.80 in 10.0 mi NW 17.3 mph - N/A   Overcast
11:16 AM 30.2 °F 18.9 °F 24.8 °F 80% 29.79 in 10.0 mi NNW 16.1 mph - N/A   Overcast
11:36 AM 30.2 °F 17.8 °F 26.6 °F 86% 29.79 in 3.0 mi NNW 19.6 mph - N/A   Overcast
11:56 AM 30.2 °F 19.3 °F 24.8 °F 80% 29.79 in 10.0 mi NW 15.0 mph - N/A   Overcast
12:36 PM 30.2 °F 18.1 °F 24.8 °F 80% 29.78 in 8.0 mi NW 18.4 mph - N/A   Overcast
1:36 PM 30.2 °F 18.9 °F 23.0 °F 75% 29.77 in 10.0 mi NW 16.1 mph - N/A   Mostly Cloudy
1:56 PM 28.4 °F 16.6 °F 23.0 °F 80% 29.77 in 10.0 mi NW 16.1 mph - N/A   Overcast
2:16 PM 28.4 °F 19.1 °F 24.8 °F 86% 29.77 in 9.0 mi WNW 10.4 mph - N/A   Overcast
2:36 PM 30.2 °F 20.2 °F 19.4 °F 64% 29.76 in 10.0 mi WNW 12.7 mph - N/A   Overcast
2:56 PM 30.2 °F 18.9 °F 19.4 °F 64% 29.75 in 10.0 mi WNW 16.1 mph - N/A   Mostly Cloudy
3:16 PM 30.2 °F 19.8 °F 19.4 °F 64% 29.74 in 10.0 mi WNW 13.8 mph - N/A   Mostly Cloudy
3:36 PM 28.4 °F 18.0 °F 24.8 °F 86% 29.74 in 9.0 mi NW 12.7 mph - N/A   Overcast
4:16 PM 30.2 °F 18.9 °F 23.0 °F 75% 29.73 in 10.0 mi NW 16.1 mph - N/A   Mostly Cloudy
4:36 PM 28.4 °F 15.8 °F 21.2 °F 74% 29.72 in 10.0 mi WNW 18.4 mph 25.3 mph N/A   Overcast
4:56 PM 28.4 °F 15.8 °F 23.0 °F 80% 29.72 in 5.0 mi WNW 18.4 mph - N/A   Overcast
5:36 PM 28.4 °F 17.5 °F 21.2 °F 74% 29.71 in 10.0 mi WNW 13.8 mph - N/A   Overcast
5:56 PM 28.4 °F 16.2 °F 19.4 °F 69% 29.70 in 10.0 mi WNW 17.3 mph - N/A   Overcast
6:16 PM 28.4 °F 15.8 °F 23.0 °F 80% 29.70 in 7.0 mi WNW 18.4 mph - N/A   Overcast
6:36 PM 28.4 °F 16.6 °F 21.2 °F 74% 29.69 in 10.0 mi WNW 16.1 mph - N/A   Overcast
6:56 PM 28.4 °F 18.0 °F 19.4 °F 69% 29.69 in 10.0 mi WNW 12.7 mph - N/A   Mostly Cloudy
7:16 PM 28.4 °F 16.6 °F 17.6 °F 64% 29.68 in 10.0 mi WNW 16.1 mph - N/A   Overcast
8:16 PM 28.4 °F 18.0 °F 19.4 °F 69% 29.67 in 10.0 mi WNW 12.7 mph - N/A   Overcast
8:36 PM 28.4 °F 19.1 °F 19.4 °F 69% 29.66 in 10.0 mi WNW 10.4 mph - N/A   Overcast
9:16 PM 26.6 °F 12.4 °F 24.8 °F 93% 29.65 in 2.5 mi NW 21.9 mph - N/A   Overcast
9:36 PM 28.4 °F 16.2 °F 21.2 °F 74% 29.64 in 10.0 mi NW 17.3 mph - N/A   Mostly Cloudy
9:56 PM 28.4 °F 15.8 °F 24.8 °F 86% 29.64 in 1.2 mi WNW 18.4 mph - N/A   Overcast
10:16 PM 28.4 °F 14.7 °F 23.0 °F 80% 29.64 in 3.0 mi WNW 21.9 mph 25.3 mph N/A   Mostly Cloudy
10:36 PM 28.4 °F 15.1 °F 21.2 °F 74% 29.63 in 3.0 mi West 20.7 mph - N/A   Overcast
10:56 PM 28.4 °F 16.6 °F 19.4 °F 69% 29.63 in 10.0 mi West 16.1 mph - N/A   Overcast
11:16 PM 28.4 °F 16.2 °F 19.4 °F 69% 29.63 in 10.0 mi West 17.3 mph - N/A   Overcast
11:36 PM 28.4 °F 15.8 °F 21.2 °F 74% 29.62 in 9.0 mi West 18.4 mph 21.9 mph N/A   Overcast
11:56 PM 28.4 °F 16.2 °F 23.0 °F 80% 29.62 in 3.0 mi West 17.3 mph - N/A   Overcast